A/2020 A1

Japanese version
Home page
Updated on February 19, 2020

---------------------------------------------------------------------

* Profile

Discovery Date January 1, 2020
Magnitude 20 mag
Discoverer Near-Earth Object Wide-field Infrared Survey Explorer

* Orbital Elements

Epoch 2019 Nov. 13.0 TT = JDT 2458800.5
T 2019 Dec. 2.06731 TT                                  Bell
q   1.6673352            (2000.0)            P               Q
n   0.00964389     Peri.  302.36618     -0.89341995     -0.01360445
a  21.8592156      Node   119.32507     +0.27591376     +0.77216779
e   0.9237239      Incl.  149.00170     -0.35450303     +0.63527303
P 102              H   18.0
From 32 observations 2020 Jan. 1-29, mean residual 0".4.

* Magnitudes Graph

        H = 18.0  G = 0.15

---------------------------------------------------------------------

The orbital elements are published on M.P.E.C. 2020-C98.
The magnitudes graphs are made with Comet for Windows.

---------------------------------------------------------------------

Copyright(C) Seiichi Yoshida (comet@aerith.net). All rights reserved.